When you browse on this site, cookies collect data to enhance your experience and personalize the content and advertising you see.
Visit our Privacy Policy to learn more. By continuing to use the site, you agree to this use of cookies and data.

Previsão horária em Abbenrode

Hoje, 28 Setembro, Segunda-feira

Tempo Temperatura Precipitação Vento Pressão Humidade
00:00 +9°C° 0 mm 1 m/s 734 mmHg 83%
01:00 +9°C° 0 mm 1 m/s 734 mmHg 83%
02:00 +9°C° 0 mm 1 m/s 735 mmHg 83%
03:00 +9°C° 0 mm 1 m/s 735 mmHg 84%
04:00 +8°C° 0 mm 2 m/s 735 mmHg 85%
05:00 +8°C° 0 mm 2 m/s 735 mmHg 84%
06:00 +9°C° 0 mm 1 m/s 735 mmHg 83%
07:00 +10°C° 0 mm 1 m/s 736 mmHg 82%
08:00 +11°C° 0 mm 1 m/s 736 mmHg 77%
09:00 +12°C° 0 mm 2 m/s 736 mmHg 72%
10:00 +14°C° 0 mm 2 m/s 736 mmHg 67%
11:00 +14°C° 0 mm 2 m/s 736 mmHg 63%
12:00 +15°C° 0 mm 2 m/s 737 mmHg 59%
13:00 +16°C° 0 mm 2 m/s 737 mmHg 56%
14:00 +16°C° 0 mm 2 m/s 737 mmHg 56%
15:00 +16°C° 0 mm 2 m/s 737 mmHg 56%
16:00 +16°C° 0 mm 1 m/s 737 mmHg 57%
17:00 +14°C° 0 mm 1 m/s 737 mmHg 63%
18:00 +13°C° 0 mm 1 m/s 737 mmHg 69%
19:00 +10°C° 0 mm 0 m/s 738 mmHg 76%
20:00 +11°C° 0 mm 1 m/s 738 mmHg 76%
21:00 +11°C° 0 mm 1 m/s 738 mmHg 77%
22:00 +10°C° 0 mm 1 m/s 739 mmHg 78%
23:00 +10°C° 0 mm 1 m/s 739 mmHg 78%

Amanhã, 29 Setembro, Terça-feira

Tempo Temperatura Precipitação Vento Pressão Humidade
00:00 +10°C° 0 mm 1 m/s 739 mmHg 77%
01:00 +10°C° 0 mm 1 m/s 739 mmHg 76%
02:00 +10°C° 0 mm 1 m/s 739 mmHg 76%
03:00 +9°C° 0 mm 1 m/s 739 mmHg 77%
04:00 +9°C° 0 mm 1 m/s 739 mmHg 77%
05:00 +9°C° 0 mm 1 m/s 739 mmHg 78%
06:00 +9°C° 0 mm 1 m/s 739 mmHg 79%
07:00 +9°C° 0 mm 1 m/s 739 mmHg 79%
08:00 +10°C° 0 mm 2 m/s 740 mmHg 74%
09:00 +13°C° 0 mm 2 m/s 740 mmHg 68%
10:00 +16°C° 0 mm 2 m/s 740 mmHg 63%
11:00 +16°C° 0 mm 2 m/s 740 mmHg 61%
12:00 +17°C° 0 mm 3 m/s 740 mmHg 59%
13:00 +18°C° 0 mm 3 m/s 740 mmHg 58%
14:00 +17°C° 0 mm 2 m/s 740 mmHg 61%
15:00 +17°C° 0 mm 2 m/s 740 mmHg 65%
16:00 +16°C° 0 mm 2 m/s 740 mmHg 69%
17:00 +15°C° 0 mm 2 m/s 740 mmHg 74%
18:00 +14°C° 0 mm 1 m/s 740 mmHg 79%
19:00 +13°C° 0 mm 1 m/s 740 mmHg 85%
20:00 +13°C° 0 mm 1 m/s 740 mmHg 86%
21:00 +13°C° 0 mm 1 m/s 740 mmHg 86%
22:00 +13°C° 0 mm 1 m/s 741 mmHg 87%
23:00 +13°C° 0 mm 1 m/s 740 mmHg 88%

Depois de amanhã, 30 Setembro, Quarta-feira

Tempo Temperatura Precipitação Vento Pressão Humidade
00:00 +13°C° 0 mm 1 m/s 740 mmHg 89%
01:00 +12°C° 0 mm 1 m/s 740 mmHg 89%
02:00 +13°C° 0.1 mm 1 m/s 740 mmHg 90%
03:00 +13°C° 0.1 mm 1 m/s 740 mmHg 90%
04:00 +13°C° 0.1 mm 1 m/s 740 mmHg 91%
05:00 +13°C° 0.2 mm 1 m/s 740 mmHg 91%
06:00 +13°C° 0.2 mm 1 m/s 740 mmHg 92%
07:00 +13°C° 0.2 mm 1 m/s 740 mmHg 92%
08:00 +13°C° 0.1 mm 1 m/s 740 mmHg 90%
09:00 +14°C° 0.1 mm 1 m/s 740 mmHg 87%
10:00 +14°C° 0.1 mm 1 m/s 740 mmHg 85%
11:00 +16°C° 0 mm 1 m/s 740 mmHg 79%
12:00 +18°C° 0 mm 1 m/s 739 mmHg 73%
13:00 +19°C° 0 mm 1 m/s 739 mmHg 67%
14:00 +19°C° 0 mm 1 m/s 739 mmHg 68%
15:00 +19°C° 0 mm 1 m/s 739 mmHg 69%
16:00 +19°C° 0 mm 1 m/s 738 mmHg 69%
17:00 +16°C° 0 mm 1 m/s 738 mmHg 76%
18:00 +15°C° 0 mm 1 m/s 738 mmHg 82%
19:00 +13°C° 0 mm 1 m/s 738 mmHg 88%
20:00 +13°C° 0 mm 1 m/s 738 mmHg 89%
21:00 +13°C° 0 mm 1 m/s 738 mmHg 90%
22:00 +12°C° 0 mm 1 m/s 738 mmHg 91%
23:00 +12°C° 0 mm 1 m/s 737 mmHg 91%

1 Outubro, Quinta-feira

Tempo Temperatura Precipitação Vento Pressão Humidade
00:00 +12°C° 0 mm 1 m/s 737 mmHg 92%
01:00 +12°C° 0 mm 2 m/s 737 mmHg 92%
02:00 +12°C° 0 mm 2 m/s 736 mmHg 92%
03:00 +10°C° 0 mm 2 m/s 736 mmHg 93%
04:00 +10°C° 0 mm 2 m/s 735 mmHg 93%
05:00 +10°C° 0 mm 2 m/s 735 mmHg 93%
06:00 +10°C° 0 mm 2 m/s 735 mmHg 92%
07:00 +10°C° 0 mm 2 m/s 734 mmHg 92%
08:00 +12°C° 0 mm 3 m/s 734 mmHg 84%
09:00 +14°C° 0 mm 3 m/s 734 mmHg 77%
10:00 +17°C° 0 mm 4 m/s 734 mmHg 69%
11:00 +18°C° 0 mm 4 m/s 733 mmHg 66%
12:00 +18°C° 0 mm 4 m/s 733 mmHg 62%
13:00 +19°C° 0 mm 5 m/s 732 mmHg 59%
14:00 +19°C° 0 mm 4 m/s 732 mmHg 61%
15:00 +19°C° 0 mm 3 m/s 732 mmHg 63%
16:00 +18°C° 0 mm 3 m/s 731 mmHg 66%
17:00 +17°C° 0 mm 2 m/s 732 mmHg 70%
18:00 +16°C° 0 mm 2 m/s 732 mmHg 74%
19:00 +15°C° 0 mm 2 m/s 732 mmHg 78%
20:00 +15°C° 0 mm 2 m/s 732 mmHg 80%
21:00 +14°C° 0 mm 1 m/s 732 mmHg 81%
22:00 +14°C° 0 mm 1 m/s 732 mmHg 83%
23:00 +13°C° 0 mm 1 m/s 732 mmHg 85%

2 Outubro, Sexta-feira

Tempo Temperatura Precipitação Vento Pressão Humidade
00:00 +13°C° 0 mm 1 m/s 732 mmHg 87%
01:00 +12°C° 0 mm 1 m/s 731 mmHg 89%
02:00 +12°C° 0 mm 1 m/s 731 mmHg 89%
03:00 +12°C° 0 mm 1 m/s 731 mmHg 89%
04:00 +12°C° 0 mm 1 m/s 731 mmHg 89%
05:00 +12°C° 0 mm 1 m/s 731 mmHg 88%
06:00 +12°C° 0 mm 2 m/s 731 mmHg 88%
07:00 +12°C° 0 mm 2 m/s 731 mmHg 88%
08:00 +14°C° 0 mm 2 m/s 731 mmHg 83%
09:00 +14°C° 0 mm 3 m/s 731 mmHg 77%
10:00 +17°C° 0 mm 3 m/s 731 mmHg 71%
11:00 +18°C° 0 mm 4 m/s 731 mmHg 67%
12:00 +19°C° 0 mm 4 m/s 731 mmHg 62%
13:00 +20°C° 0 mm 5 m/s 731 mmHg 57%
14:00 +20°C° 0 mm 5 m/s 731 mmHg 59%
15:00 +19°C° 0 mm 5 m/s 731 mmHg 61%
16:00 +19°C° 0 mm 5 m/s 731 mmHg 63%
17:00 +17°C° 0 mm 5 m/s 731 mmHg 69%
18:00 +16°C° 0 mm 5 m/s 731 mmHg 75%
19:00 +15°C° 0 mm 5 m/s 731 mmHg 81%
20:00 +14°C° 0 mm 5 m/s 730 mmHg 82%
21:00 +14°C° 0 mm 6 m/s 730 mmHg 82%
22:00 +13°C° 0 mm 6 m/s 730 mmHg 83%
23:00 +13°C° 0 mm 6 m/s 730 mmHg 85%

3 Outubro, Sábado

Tempo Temperatura Precipitação Vento Pressão Humidade
00:00 +12°C° 0 mm 5 m/s 730 mmHg 86%
01:00 +12°C° 0 mm 5 m/s 730 mmHg 88%
02:00 +12°C° 0 mm 5 m/s 729 mmHg 88%
03:00 +10°C° 0 mm 6 m/s 729 mmHg 89%
04:00 +10°C° 0 mm 6 m/s 729 mmHg 89%
05:00 +10°C° 0 mm 6 m/s 729 mmHg 89%
06:00 +10°C° 0 mm 6 m/s 729 mmHg 88%
07:00 +11°C° 0 mm 6 m/s 729 mmHg 88%
08:00 +13°C° 0 mm 6 m/s 729 mmHg 84%
09:00 +14°C° 0 mm 7 m/s 729 mmHg 80%
10:00 +15°C° 0 mm 7 m/s 729 mmHg 76%
11:00 +16°C° 0 mm 7 m/s 728 mmHg 73%
12:00 +17°C° 0 mm 7 m/s 728 mmHg 71%
13:00 +18°C° 0 mm 7 m/s 728 mmHg 68%
14:00 +19°C° 0 mm 6 m/s 728 mmHg 69%
15:00 +19°C° 0 mm 6 m/s 728 mmHg 70%
16:00 +19°C° 0 mm 5 m/s 728 mmHg 71%
17:00 +18°C° 0 mm 4 m/s 728 mmHg 77%
18:00 +16°C° 0 mm 3 m/s 729 mmHg 84%
19:00 +15°C° 0 mm 2 m/s 729 mmHg 90%
20:00 +15°C° 0 mm 2 m/s 729 mmHg 91%
21:00 +14°C° 0 mm 2 m/s 729 mmHg 92%
22:00 +14°C° 0 mm 2 m/s 729 mmHg 93%
23:00 +14°C° 0 mm 1 m/s 729 mmHg 94%
Mostrar mais